WZZ411 LYBE-LIEA

Flight info

Callsign WZZ411
Flight time 1h 39m
Altitude 20000
Route VAL Y88 VEBAR/N0452F380 DCT KEB DCT ORVAT DCT VELUG/N0448F370 DCT TINTO DCT BATOX DCT RUXOP DCT ROMPO/N0359F190 L5 MINKA
Aircraft A321/M-SDE1E2E3FGIJ1J4RWXY/LB1

Departure

Time 2026-05-08 18:55
Airport Belgrade Nikola Tesla Airport (LYBE)

Arrival

Time 2026-05-08 20:35
Airport Alghero-Fertilia Airport (LIEA)
Time Latitude Longitude Altitude Speed Heading
2026-05-08 18:29 44.81932 20.29284 307 ft 0 kts 302°
2026-05-08 18:46 44.81923 20.29303 310 ft 4 kts 310°
2026-05-08 18:46 44.81903 20.29328 306 ft 4 kts 335°
2026-05-08 18:46 44.81880 20.29333 306 ft 4 kts 26°
2026-05-08 18:46 44.81876 20.29331 305 ft 0 kts 32°
2026-05-08 18:48 44.81877 20.29331 306 ft 1 kts 32°
2026-05-08 18:48 44.81898 20.29351 306 ft 6 kts 33°
2026-05-08 18:48 44.81946 20.29396 309 ft 11 kts 33°
2026-05-08 18:48 44.82022 20.29463 308 ft 15 kts 32°
2026-05-08 18:49 44.82102 20.29566 310 ft 16 kts 75°
2026-05-08 18:49 44.82067 20.29699 309 ft 14 kts 121°
2026-05-08 18:49 44.82015 20.29818 310 ft 15 kts 122°
2026-05-08 18:49 44.81956 20.29950 309 ft 17 kts 122°
2026-05-08 18:50 44.81891 20.30097 307 ft 18 kts 122°
2026-05-08 18:50 44.81822 20.30252 308 ft 18 kts 122°
2026-05-08 18:50 44.81753 20.30401 308 ft 19 kts 122°
2026-05-08 18:50 44.81682 20.30563 307 ft 20 kts 121°
2026-05-08 18:51 44.81606 20.30736 308 ft 21 kts 122°
2026-05-08 18:51 44.81524 20.30919 306 ft 23 kts 122°
2026-05-08 18:51 44.81443 20.31103 306 ft 21 kts 122°
2026-05-08 18:51 44.81363 20.31285 306 ft 22 kts 122°
2026-05-08 18:52 44.81280 20.31476 308 ft 23 kts 121°
2026-05-08 18:52 44.81192 20.31672 308 ft 24 kts 122°
2026-05-08 18:52 44.81100 20.31877 309 ft 25 kts 122°
2026-05-08 18:52 44.81010 20.32084 308 ft 17 kts 121°
2026-05-08 18:53 44.80994 20.32210 306 ft 14 kts 70°
2026-05-08 18:53 44.81063 20.32215 306 ft 14 kts 300°
2026-05-08 18:53 44.81087 20.32160 305 ft 0 kts 302°
2026-05-08 18:54 44.81087 20.32159 305 ft 0 kts 302°
2026-05-08 18:54 44.81117 20.32092 309 ft 33 kts 302°
2026-05-08 18:54 44.81389 20.31482 306 ft 111 kts 302°
2026-05-08 18:55 44.82484 20.28995 1353 ft 135 kts 304°
2026-05-08 18:55 44.82970 20.27889 2029 ft 139 kts 304°
2026-05-08 18:55 44.83523 20.26654 2331 ft 159 kts 305°
2026-05-08 18:56 44.84160 20.25253 2617 ft 181 kts 305°
2026-05-08 18:56 44.84882 20.23659 2903 ft 204 kts 304°
2026-05-08 18:56 44.85682 20.21882 3150 ft 226 kts 304°
2026-05-08 18:56 44.86566 20.19913 3539 ft 245 kts 303°
2026-05-08 18:57 44.87473 20.17872 4369 ft 250 kts 301°
2026-05-08 18:57 44.87927 20.16329 4668 ft 265 kts 282°
2026-05-08 18:57 44.87627 20.12855 5617 ft 277 kts 242°
2026-05-08 18:57 44.86396 20.10826 6443 ft 279 kts 218°
2026-05-08 18:58 44.84852 20.09105 7334 ft 280 kts 217°
2026-05-08 18:58 44.83313 20.07413 8207 ft 281 kts 217°
2026-05-08 18:58 44.81764 20.05713 9084 ft 284 kts 217°
2026-05-08 18:58 44.80202 20.03997 9935 ft 286 kts 217°
2026-05-08 18:59 44.78604 20.02239 10451 ft 301 kts 217°
2026-05-08 18:59 44.76891 20.00348 10684 ft 324 kts 217°
2026-05-08 18:59 44.75104 19.98370 11182 ft 336 kts 217°
2026-05-08 18:59 44.73258 19.96327 11889 ft 340 kts 217°
2026-05-08 19:00 44.71384 19.94256 12622 ft 344 kts 217°
2026-05-08 19:00 44.69490 19.92162 13357 ft 348 kts 217°
2026-05-08 19:00 44.67573 19.90045 14056 ft 352 kts 217°
2026-05-08 19:00 44.65635 19.87908 14698 ft 356 kts 217°
2026-05-08 19:01 44.63673 19.85747 15334 ft 360 kts 217°
2026-05-08 19:01 44.61690 19.83568 15983 ft 364 kts 217°
2026-05-08 19:01 44.59680 19.81363 16617 ft 369 kts 217°
2026-05-08 19:01 44.57645 19.79126 17255 ft 374 kts 217°
2026-05-08 19:02 44.55587 19.76864 17888 ft 378 kts 217°
2026-05-08 19:02 44.53504 19.74580 18494 ft 382 kts 217°
2026-05-08 19:02 44.51400 19.72276 19040 ft 385 kts 217°
2026-05-08 19:02 44.49280 19.69955 19633 ft 388 kts 217°
2026-05-08 19:03 44.47147 19.67619 20223 ft 391 kts 217°
2026-05-08 19:03 44.45000 19.65268 20827 ft 393 kts 217°
2026-05-08 19:03 44.42833 19.62901 21413 ft 396 kts 217°
2026-05-08 19:03 44.40650 19.60525 22010 ft 399 kts 217°
2026-05-08 19:04 44.38452 19.58138 22606 ft 401 kts 217°
2026-05-08 19:04 44.36241 19.55737 23186 ft 404 kts 217°
2026-05-08 19:04 44.34016 19.53317 23721 ft 406 kts 217°
2026-05-08 19:04 44.31782 19.50886 24185 ft 408 kts 217°
2026-05-08 19:05 44.29537 19.48443 24654 ft 410 kts 218°
2026-05-08 19:05 44.27280 19.45994 25124 ft 412 kts 218°
2026-05-08 19:05 44.25017 19.43543 25603 ft 413 kts 218°
2026-05-08 19:05 44.22741 19.41085 26069 ft 414 kts 218°
2026-05-08 19:06 44.20552 19.38464 26506 ft 416 kts 225°
2026-05-08 19:06 44.18706 19.35345 26937 ft 418 kts 236°
2026-05-08 19:06 44.17309 19.31852 27350 ft 421 kts 246°
2026-05-08 19:06 44.16282 19.28023 27796 ft 423 kts 250°
2026-05-08 19:07 44.15288 19.24169 28266 ft 423 kts 249°
2026-05-08 19:07 44.14279 19.20310 28708 ft 425 kts 249°
2026-05-08 19:07 44.13260 19.16446 29126 ft 426 kts 249°
2026-05-08 19:07 44.12213 19.12577 29552 ft 428 kts 248°
2026-05-08 19:08 44.11146 19.08707 29941 ft 430 kts 248°
2026-05-08 19:08 44.10065 19.04819 30304 ft 431 kts 248°
2026-05-08 19:08 44.08981 19.00920 30639 ft 433 kts 248°
2026-05-08 19:08 44.07892 18.96999 30968 ft 435 kts 248°
2026-05-08 19:09 44.06801 18.93066 31305 ft 437 kts 248°
2026-05-08 19:09 44.05708 18.89117 31642 ft 438 kts 248°
2026-05-08 19:09 44.04617 18.85172 32106 ft 437 kts 248°
2026-05-08 19:09 44.03529 18.81243 32557 ft 436 kts 248°
2026-05-08 19:10 44.02430 18.77286 32701 ft 442 kts 248°
2026-05-08 19:10 44.01315 18.73284 32838 ft 446 kts 248°
2026-05-08 19:10 44.00189 18.69252 33056 ft 449 kts 248°
2026-05-08 19:10 43.99062 18.65213 33349 ft 449 kts 248°
2026-05-08 19:11 43.97934 18.61178 33682 ft 448 kts 248°
2026-05-08 19:11 43.96807 18.57153 34023 ft 447 kts 248°
2026-05-08 19:11 43.95682 18.53141 34322 ft 446 kts 248°
2026-05-08 19:11 43.94557 18.49142 34602 ft 445 kts 248°
2026-05-08 19:12 43.93427 18.45147 34862 ft 444 kts 247°
2026-05-08 19:12 43.92214 18.41207 35142 ft 444 kts 245°
2026-05-08 19:12 43.90908 18.37338 35408 ft 443 kts 244°
2026-05-08 19:12 43.89543 18.33510 35677 ft 442 kts 243°
2026-05-08 19:13 43.88158 18.29701 35936 ft 442 kts 243°
2026-05-08 19:13 43.86776 18.25901 36204 ft 442 kts 243°
2026-05-08 19:13 43.85409 18.22091 36473 ft 441 kts 244°
2026-05-08 19:13 43.84062 18.18276 36727 ft 441 kts 244°
2026-05-08 19:14 43.82726 18.14452 36975 ft 440 kts 245°
2026-05-08 19:14 43.81399 18.10638 37229 ft 440 kts 245°
2026-05-08 19:14 43.80072 18.06828 37480 ft 439 kts 245°
2026-05-08 19:14 43.78740 18.03017 37734 ft 439 kts 245°
2026-05-08 19:15 43.77410 17.99226 37965 ft 438 kts 245°
2026-05-08 19:15 43.74742 17.91645 38045 ft 438 kts 245°
2026-05-08 19:16 43.72064 17.84080 38042 ft 437 kts 245°
2026-05-08 19:16 43.69384 17.76535 38048 ft 437 kts 245°
2026-05-08 19:17 43.67159 17.70277 38047 ft 437 kts 245°
2026-05-08 19:17 43.64474 17.62749 38049 ft 437 kts 245°
2026-05-08 19:18 43.61786 17.55226 38044 ft 437 kts 245°
2026-05-08 19:18 43.59093 17.47708 38063 ft 437 kts 245°
2026-05-08 19:19 43.56395 17.40192 38081 ft 437 kts 245°
2026-05-08 19:19 43.53694 17.32689 38091 ft 437 kts 245°
2026-05-08 19:20 43.50987 17.25203 38081 ft 436 kts 245°
2026-05-08 19:20 43.48325 17.17708 38082 ft 436 kts 247°
2026-05-08 19:21 43.45885 17.10077 38075 ft 435 kts 248°
2026-05-08 19:21 43.43503 17.02421 38084 ft 435 kts 248°
2026-05-08 19:22 43.41072 16.94812 38080 ft 434 kts 248°
2026-05-08 19:22 43.38601 16.87232 38072 ft 434 kts 248°
2026-05-08 19:23 43.36135 16.79662 38050 ft 433 kts 248°
2026-05-08 19:23 43.33672 16.72108 38062 ft 433 kts 248°
2026-05-08 19:24 43.31212 16.64580 38068 ft 431 kts 248°
2026-05-08 19:24 43.28774 16.57138 38067 ft 429 kts 248°
2026-05-08 19:25 43.26310 16.49632 38064 ft 428 kts 248°
2026-05-08 19:25 43.23872 16.42254 38068 ft 427 kts 248°
2026-05-08 19:26 43.21418 16.34843 38067 ft 426 kts 248°
2026-05-08 19:26 43.18970 16.27454 38077 ft 425 kts 248°
2026-05-08 19:27 43.16523 16.20089 38077 ft 424 kts 248°
2026-05-08 19:27 43.14074 16.12733 38082 ft 424 kts 248°
2026-05-08 19:28 43.11621 16.05403 38084 ft 424 kts 248°
2026-05-08 19:28 43.09168 15.98076 38081 ft 423 kts 248°
2026-05-08 19:29 43.06708 15.90777 38092 ft 422 kts 248°
2026-05-08 19:29 43.04248 15.83498 38093 ft 421 kts 248°
2026-05-08 19:30 43.01794 15.76238 38091 ft 420 kts 248°
2026-05-08 19:30 42.99347 15.68992 38094 ft 420 kts 248°
2026-05-08 19:31 42.96896 15.61751 38100 ft 420 kts 247°
2026-05-08 19:31 42.94433 15.54525 38083 ft 420 kts 247°
2026-05-08 19:32 42.91965 15.47307 38091 ft 420 kts 247°
2026-05-08 19:32 42.89532 15.40073 38094 ft 419 kts 249°
2026-05-08 19:33 42.87321 15.32728 38095 ft 418 kts 250°
2026-05-08 19:33 42.85179 15.25353 38090 ft 418 kts 250°
2026-05-08 19:34 42.83002 15.18054 38090 ft 419 kts 249°
2026-05-08 19:34 42.80759 15.10729 38081 ft 419 kts 249°
2026-05-08 19:35 42.78509 15.03406 38090 ft 419 kts 249°
2026-05-08 19:35 42.76266 14.96082 38090 ft 419 kts 249°
2026-05-08 19:36 42.74019 14.88755 38099 ft 420 kts 249°
2026-05-08 19:36 42.71765 14.81435 38097 ft 420 kts 249°
2026-05-08 19:37 42.69506 14.74116 38089 ft 420 kts 249°
2026-05-08 19:37 42.67243 14.66809 38070 ft 419 kts 249°
2026-05-08 19:38 42.64974 14.59503 38089 ft 419 kts 249°
2026-05-08 19:38 42.62702 14.52212 38094 ft 419 kts 249°
2026-05-08 19:39 42.60424 14.44929 38103 ft 419 kts 249°
2026-05-08 19:39 42.58163 14.37702 38103 ft 419 kts 249°
2026-05-08 19:40 42.55882 14.30426 38105 ft 419 kts 249°
2026-05-08 19:40 42.53594 14.23156 38088 ft 419 kts 249°
2026-05-08 19:41 42.51304 14.15890 38102 ft 419 kts 249°
2026-05-08 19:41 42.49000 14.08625 38104 ft 420 kts 249°
2026-05-08 19:42 42.46692 14.01357 38100 ft 420 kts 249°
2026-05-08 19:42 42.44376 13.94095 38115 ft 420 kts 249°
2026-05-08 19:43 42.42065 13.86828 38108 ft 420 kts 249°
2026-05-08 19:43 42.39744 13.79570 38112 ft 420 kts 249°
2026-05-08 19:44 42.37411 13.72313 38128 ft 420 kts 248°
2026-05-08 19:44 42.35074 13.65069 38125 ft 420 kts 249°
2026-05-08 19:45 42.32742 13.57825 38119 ft 420 kts 249°
2026-05-08 19:45 42.30407 13.50589 38117 ft 420 kts 248°
2026-05-08 19:46 42.28060 13.43357 38117 ft 421 kts 248°
2026-05-08 19:46 42.26885 13.39741 37878 ft 419 kts 248°
2026-05-08 19:46 42.24548 13.32537 37320 ft 419 kts 248°
2026-05-08 19:47 42.23380 13.28946 37077 ft 418 kts 248°
2026-05-08 19:47 42.22205 13.25362 37086 ft 418 kts 248°
2026-05-08 19:47 42.19846 13.18189 37073 ft 418 kts 248°
2026-05-08 19:48 42.17486 13.11010 37076 ft 419 kts 248°
2026-05-08 19:48 42.15123 13.03842 37061 ft 419 kts 248°
2026-05-08 19:49 42.12874 12.97028 37062 ft 419 kts 248°
2026-05-08 19:49 42.10623 12.90185 37052 ft 418 kts 248°
2026-05-08 19:50 42.08248 12.83028 37051 ft 419 kts 248°
2026-05-08 19:50 42.05862 12.75883 37048 ft 419 kts 248°
2026-05-08 19:51 42.03483 12.68735 37041 ft 418 kts 248°
2026-05-08 19:51 42.01098 12.61594 37040 ft 419 kts 247°
2026-05-08 19:52 41.98707 12.54461 37040 ft 419 kts 247°
2026-05-08 19:52 41.96316 12.47331 37041 ft 419 kts 247°
2026-05-08 19:53 41.93915 12.40205 37030 ft 419 kts 247°
2026-05-08 19:53 41.91509 12.33086 37037 ft 419 kts 247°
2026-05-08 19:54 41.89113 12.26011 37030 ft 419 kts 247°
2026-05-08 19:54 41.86691 12.18891 37030 ft 419 kts 247°
2026-05-08 19:55 41.85481 12.15336 37194 ft 419 kts 247°
2026-05-08 19:55 41.84270 12.11776 37186 ft 419 kts 247°
2026-05-08 19:55 41.81851 12.04663 37163 ft 419 kts 247°
2026-05-08 19:56 41.79417 11.97552 37139 ft 420 kts 246°
2026-05-08 19:56 41.76973 11.90434 37106 ft 420 kts 246°
2026-05-08 19:57 41.74524 11.83319 37073 ft 421 kts 246°
2026-05-08 19:57 41.72069 11.76216 37041 ft 421 kts 246°
2026-05-08 19:58 41.69618 11.69103 37043 ft 421 kts 246°
2026-05-08 19:58 41.67156 11.61996 37048 ft 421 kts 246°
2026-05-08 19:59 41.64687 11.54889 37049 ft 421 kts 246°
2026-05-08 19:59 41.62218 11.47782 37041 ft 421 kts 246°
2026-05-08 20:00 41.59738 11.40678 37054 ft 421 kts 246°
2026-05-08 20:00 41.57251 11.33593 37054 ft 421 kts 246°
2026-05-08 20:01 41.54764 11.26504 37052 ft 422 kts 246°
2026-05-08 20:01 41.52270 11.19407 37055 ft 422 kts 246°
2026-05-08 20:02 41.49771 11.12320 37054 ft 422 kts 246°
2026-05-08 20:02 41.47289 11.05225 37054 ft 422 kts 248°
2026-05-08 20:03 41.45452 10.99152 37047 ft 421 kts 250°
2026-05-08 20:03 41.43470 10.91896 37054 ft 419 kts 251°
2026-05-08 20:04 41.41467 10.84616 37054 ft 418 kts 250°
2026-05-08 20:04 41.39381 10.77389 37054 ft 418 kts 250°
2026-05-08 20:05 41.37266 10.70168 37060 ft 418 kts 250°
2026-05-08 20:05 41.35167 10.62945 37060 ft 418 kts 250°
2026-05-08 20:06 41.33070 10.55725 37064 ft 418 kts 250°
2026-05-08 20:06 41.30967 10.48527 37057 ft 417 kts 250°
2026-05-08 20:07 41.28861 10.41352 37060 ft 415 kts 250°
2026-05-08 20:07 41.26758 10.34210 37060 ft 414 kts 250°
2026-05-08 20:08 41.24683 10.27147 36897 ft 402 kts 250°
2026-05-08 20:08 41.23669 10.23709 36630 ft 398 kts 250°
2026-05-08 20:08 41.22660 10.20299 36390 ft 396 kts 250°
2026-05-08 20:09 41.21652 10.16893 36140 ft 396 kts 250°
2026-05-08 20:09 41.20644 10.13486 35884 ft 397 kts 250°
2026-05-08 20:09 41.19633 10.10076 35635 ft 397 kts 249°
2026-05-08 20:09 41.18632 10.06710 35395 ft 398 kts 249°
2026-05-08 20:10 41.17603 10.03247 35142 ft 398 kts 249°
2026-05-08 20:10 41.16589 9.99833 34895 ft 397 kts 249°
2026-05-08 20:10 41.15583 9.96430 34661 ft 396 kts 250°
2026-05-08 20:10 41.14588 9.93035 34419 ft 394 kts 250°
2026-05-08 20:11 41.13598 9.89652 34171 ft 393 kts 250°
2026-05-08 20:11 41.12608 9.86291 33923 ft 389 kts 250°
2026-05-08 20:11 41.11641 9.83018 33498 ft 385 kts 250°
2026-05-08 20:11 41.10667 9.79729 33009 ft 381 kts 250°
2026-05-08 20:12 41.09706 9.76470 32529 ft 378 kts 250°
2026-05-08 20:12 41.08746 9.73243 32046 ft 375 kts 249°
2026-05-08 20:12 41.07776 9.70006 31562 ft 372 kts 249°
2026-05-08 20:12 41.06831 9.66877 31106 ft 369 kts 249°
2026-05-08 20:13 41.05879 9.63733 30621 ft 367 kts 249°
2026-05-08 20:13 41.04918 9.60562 30150 ft 365 kts 249°
2026-05-08 20:13 41.03992 9.57500 29656 ft 362 kts 249°
2026-05-08 20:13 41.03055 9.54418 29204 ft 359 kts 249°
2026-05-08 20:14 41.02124 9.51368 28760 ft 356 kts 249°
2026-05-08 20:14 41.01203 9.48344 28333 ft 353 kts 249°
2026-05-08 20:14 41.00290 9.45342 27914 ft 350 kts 250°
2026-05-08 20:14 40.99383 9.42358 27493 ft 348 kts 250°
2026-05-08 20:15 40.98482 9.39396 27088 ft 346 kts 250°
2026-05-08 20:15 40.97587 9.36452 26706 ft 343 kts 250°
2026-05-08 20:15 40.96696 9.33536 26296 ft 340 kts 250°
2026-05-08 20:15 40.95810 9.30645 25918 ft 337 kts 250°
2026-05-08 20:16 40.94931 9.27783 25527 ft 335 kts 250°
2026-05-08 20:16 40.94056 9.24939 25134 ft 332 kts 250°
2026-05-08 20:16 40.93190 9.22119 24736 ft 330 kts 250°
2026-05-08 20:16 40.92332 9.19316 24348 ft 328 kts 250°
2026-05-08 20:17 40.91480 9.16530 23947 ft 326 kts 250°
2026-05-08 20:17 40.90633 9.13759 23514 ft 325 kts 250°
2026-05-08 20:17 40.89787 9.11007 23088 ft 322 kts 250°
2026-05-08 20:17 40.88947 9.08282 22666 ft 318 kts 250°
2026-05-08 20:18 40.88114 9.05583 22266 ft 316 kts 250°
2026-05-08 20:18 40.87289 9.02905 21851 ft 313 kts 250°
2026-05-08 20:18 40.86472 9.00260 21445 ft 310 kts 250°
2026-05-08 20:18 40.85661 8.97635 21032 ft 307 kts 250°
2026-05-08 20:19 40.84856 8.95032 20643 ft 305 kts 250°
2026-05-08 20:19 40.84056 8.92447 20233 ft 303 kts 250°
2026-05-08 20:19 40.83259 8.89883 19833 ft 302 kts 250°
2026-05-08 20:19 40.82466 8.87327 19443 ft 300 kts 250°
2026-05-08 20:20 40.81677 8.84789 19035 ft 298 kts 250°
2026-05-08 20:20 40.80880 8.82265 18640 ft 297 kts 250°
2026-05-08 20:20 40.80082 8.79761 18232 ft 295 kts 250°
2026-05-08 20:20 40.79287 8.77273 17799 ft 293 kts 250°
2026-05-08 20:21 40.78500 8.74812 17413 ft 290 kts 250°
2026-05-08 20:21 40.77722 8.72371 17033 ft 288 kts 250°
2026-05-08 20:21 40.76951 8.69948 16654 ft 285 kts 250°
2026-05-08 20:21 40.76184 8.67540 16262 ft 284 kts 250°
2026-05-08 20:22 40.75420 8.65147 15875 ft 282 kts 249°
2026-05-08 20:22 40.74656 8.62767 15491 ft 281 kts 249°
2026-05-08 20:22 40.73895 8.60399 15105 ft 280 kts 249°
2026-05-08 20:22 40.73133 8.58034 14737 ft 280 kts 249°
2026-05-08 20:23 40.72373 8.55673 14354 ft 279 kts 249°
2026-05-08 20:23 40.71614 8.53318 13975 ft 279 kts 249°
2026-05-08 20:23 40.70858 8.50968 13583 ft 278 kts 249°
2026-05-08 20:23 40.70108 8.48631 13198 ft 276 kts 249°
2026-05-08 20:24 40.69360 8.46303 12817 ft 274 kts 249°
2026-05-08 20:24 40.68615 8.43996 12448 ft 273 kts 248°
2026-05-08 20:24 40.67872 8.41702 12080 ft 272 kts 248°
2026-05-08 20:24 40.67132 8.39419 11719 ft 271 kts 248°
2026-05-08 20:25 40.66395 8.37141 11359 ft 270 kts 248°
2026-05-08 20:25 40.65662 8.34871 10996 ft 269 kts 248°
2026-05-08 20:25 40.64789 8.32697 10628 ft 270 kts 233°
2026-05-08 20:25 40.63376 8.31061 10271 ft 274 kts 211°
2026-05-08 20:26 40.61568 8.30271 10124 ft 282 kts 189°
2026-05-08 20:26 40.59571 8.30430 9939 ft 295 kts 172°
2026-05-08 20:26 40.57553 8.31010 9296 ft 303 kts 170°
2026-05-08 20:26 40.55530 8.31631 9039 ft 295 kts 169°
2026-05-08 20:27 40.53556 8.32250 8341 ft 289 kts 168°
2026-05-08 20:27 40.51607 8.32775 7587 ft 283 kts 176°
2026-05-08 20:27 40.49671 8.32680 6856 ft 276 kts 192°
2026-05-08 20:27 40.47875 8.31911 6194 ft 268 kts 205°
2026-05-08 20:28 40.46489 8.31043 6092 ft 244 kts 204°
2026-05-08 20:28 40.45017 8.30155 5966 ft 225 kts 203°
2026-05-08 20:28 40.43597 8.29309 5866 ft 224 kts 205°
2026-05-08 20:28 40.42405 8.28049 5746 ft 223 kts 236°
2026-05-08 20:29 40.41928 8.26121 5514 ft 229 kts 270°
2026-05-08 20:29 40.42356 8.24111 5128 ft 232 kts 294°
2026-05-08 20:29 40.43043 8.22200 4753 ft 232 kts 295°
2026-05-08 20:29 40.43797 8.20332 4343 ft 232 kts 308°
2026-05-08 20:30 40.45075 8.19172 3994 ft 220 kts 343°
2026-05-08 20:30 40.46532 8.19120 3649 ft 205 kts 17°
2026-05-08 20:30 40.47799 8.19821 3371 ft 193 kts 27°
2026-05-08 20:30 40.48991 8.20537 3062 ft 184 kts 27°
2026-05-08 20:31 40.50139 8.21221 2782 ft 178 kts 27°
2026-05-08 20:31 40.51247 8.21884 2514 ft 172 kts 27°
2026-05-08 20:31 40.52312 8.22522 2283 ft 165 kts 27°
2026-05-08 20:31 40.53335 8.23134 2062 ft 159 kts 27°
2026-05-08 20:32 40.54319 8.23723 1842 ft 152 kts 26°
2026-05-08 20:32 40.55271 8.24294 1633 ft 148 kts 26°
2026-05-08 20:32 40.56171 8.24836 1444 ft 139 kts 26°
2026-05-08 20:32 40.57043 8.25362 1240 ft 136 kts 26°
2026-05-08 20:33 40.57895 8.25871 1039 ft 135 kts 26°
2026-05-08 20:33 40.58745 8.26377 846 ft 134 kts 26°
2026-05-08 20:33 40.59594 8.26885 647 ft 134 kts 24°
2026-05-08 20:33 40.60426 8.27403 454 ft 132 kts 25°
2026-05-08 20:34 40.61258 8.27901 243 ft 132 kts 25°
2026-05-08 20:34 40.62087 8.28398 93 ft 131 kts 25°
2026-05-08 20:34 40.63247 8.29099 87 ft 55 kts 25°
2026-05-08 20:35 40.63551 8.29280 84 ft 32 kts 25°
2026-05-08 20:35 40.63676 8.29355 84 ft 18 kts 25°
2026-05-08 20:35 40.63766 8.29466 89 ft 18 kts 54°
2026-05-08 20:35 40.63815 8.29587 89 ft 14 kts 90°
2026-05-08 20:36 40.63734 8.29638 86 ft 16 kts 192°
2026-05-08 20:36 40.63625 8.29572 86 ft 19 kts 206°
2026-05-08 20:36 40.63506 8.29498 89 ft 17 kts 206°
2026-05-08 20:36 40.63420 8.29446 84 ft 7 kts 185°
2026-05-08 20:37 40.63364 8.29457 85 ft 10 kts 170°
2026-05-08 20:37 40.63296 8.29474 83 ft 9 kts 169°
2026-05-08 20:37 40.63227 8.29472 84 ft 9 kts 201°
2026-05-08 20:37 40.63162 8.29433 81 ft 12 kts 204°
2026-05-08 20:38 40.63106 8.29422 85 ft 6 kts 147°
2026-05-08 20:38 40.63086 8.29456 83 ft 4 kts 120°
2026-05-08 20:38 40.63079 8.29474 83 ft 0 kts 115°